EW8440 Weather Reports


Display with metric or nautical units.
time (UTC)temp
F
wind
direction
speed
MPH
gust
MPH
rain 1hr
in
rain 24hr
in
rain mn
in
humidity
%
barometer
mb
20240623150039 89 238 1.0 6.0 0.00 0.00 0.00 56 1006.9
20240623144539 88 225 0.0 0.0 0.00 0.00 0.00 60 1007.1
20240623143029 86 229 0.0 3.0 0.00 0.00 0.00 62 1007.2
20240623141529 85 221 0.0 4.0 0.00 0.00 0.00 62 1007.5
20240623140030 85 295 0.0 3.0 0.00 0.00 0.00 62 1007.5
20240623134522 85 214 0.0 0.0 0.00 0.00 0.00 61 1007.5
20240623133024 83 218 0.0 4.0 0.00 0.00 0.00 63 1007.7
20240623131514 81 248 0.0 2.0 0.00 0.00 0.00 67 1007.9
20240623130014 80 246 0.0 4.0 0.00 0.00 0.00 69 1008.1
20240623124511 79 252 0.0 4.0 0.00 0.00 0.00 70 1008.2
20240623123010 77 278 0.0 0.0 0.00 0.00 0.00 71 1008.4
20240623121531 77 276 0.0 1.0 0.00 0.00 0.00 73 1008.6
20240623120009 76 283 0.0 0.0 0.00 0.00 0.00 74 1008.4
20240623114509 75 283 0.0 0.0 0.00 0.00 0.00 75 1008.5
20240623113009 75 284 0.0 0.0 0.00 0.00 0.00 75 1008.5
20240623111508 74 284 0.0 0.0 0.00 0.00 0.00 75 1008.4
20240623110007 74 284 0.0 0.0 0.00 0.00 0.00 75 1008.3
20240623104506 73 284 0.0 0.0 0.00 0.00 0.00 76 1008.4
20240623103004 73 284 0.0 0.0 0.00 0.00 0.00 75 1008.4
20240623101502 74 284 0.0 0.0 0.00 0.00 0.00 73 1008.4
20240623100100 74 284 0.0 0.0 0.00 0.00 0.00 71 1008.4
20240623094557 75 284 0.0 0.0 0.00 0.00 0.00 71 1008.6
20240623093056 75 284 0.0 0.0 0.00 0.00 0.00 70 1008.7
20240623091555 75 284 0.0 2.0 0.00 0.00 0.00 70 1008.7
20240623090058 75 284 0.0 0.0 0.00 0.00 0.00 72 1008.9
20240623084551 75 284 0.0 0.0 0.00 0.00 0.00 71 1008.8
20240623083057 75 284 0.0 0.0 0.00 0.00 0.00 71 1008.9
20240623081550 75 284 0.0 0.0 0.00 0.00 0.00 71 1008.9
20240623080126 75 284 0.0 0.0 0.00 0.00 0.00 72 1009.0
20240623074546 76 284 0.0 0.0 0.00 0.00 0.00 72 1009.1
20240623073042 77 284 0.0 0.0 0.00 0.00 0.00 70 1009.1
20240623071600 77 284 0.0 0.0 0.00 0.00 0.00 70 1009.2
20240623070045 77 284 0.0 0.0 0.00 0.00 0.00 71 1009.4
20240623064539 76 284 0.0 0.0 0.00 0.00 0.00 73 1009.5
20240623063035 76 284 0.0 0.0 0.00 0.00 0.00 73 1009.7
20240623061534 77 284 0.0 0.0 0.00 0.00 0.00 73 1009.8
20240623060042 77 284 0.0 0.0 0.00 0.00 0.00 71 1009.8
20240623054535 79 284 0.0 0.0 0.00 0.00 0.00 67 1009.9
20240623053027 79 284 0.0 0.0 0.00 0.00 0.00 67 1010.0
20240623051525 79 284 0.0 0.0 0.00 0.00 0.00 68 1010.1
20240623050023 80 284 0.0 0.0 0.00 0.00 0.00 66 1010.2
20240623044517 81 284 0.0 0.0 0.00 0.00 0.00 63 1010.2
20240623043016 81 284 0.0 0.0 0.00 0.00 0.00 62 1010.2
20240623041529 82 284 0.0 0.0 0.00 0.00 0.00 62 1010.4
20240623040011 82 284 0.0 0.0 0.00 0.00 0.00 63 1010.4
20240623034510 82 284 0.0 0.0 0.00 0.00 0.00 63 1010.5
20240623033011 82 284 0.0 0.0 0.00 0.00 0.00 63 1010.6
20240623031510 81 284 0.0 0.0 0.00 0.00 0.00 66 1010.8
20240623030028 82 284 0.0 0.0 0.00 0.00 0.00 66 1010.9
20240623024508 83 284 0.0 0.0 0.00 0.00 0.00 64 1011.0
20240623023007 83 284 0.0 0.0 0.00 0.00 0.00 64 1011.2
20240623021506 82 284 0.0 0.0 0.00 0.00 0.00 65 1011.1
20240623020006 84 284 0.0 0.0 0.00 0.00 0.00 67 1011.1
20240623014506 85 284 0.0 0.0 0.00 0.00 0.00 60 1011.0
20240623013011 85 284 0.0 0.0 0.00 0.00 0.00 59 1010.9
20240623011507 86 284 0.0 0.0 0.00 0.00 0.00 56 1011.0
20240623010014 87 284 0.0 0.0 0.00 0.00 0.00 55 1010.9
20240623004503 87 286 0.0 0.0 0.00 0.00 0.00 55 1010.8
20240623003004 89 273 0.0 1.0 0.00 0.00 0.00 53 1011.0
20240623001507 90 217 0.0 0.0 0.00 0.00 0.00 51 1010.8
20240623000005 91 217 0.0 0.0 0.00 0.00 0.00 49 1010.8
20240622234501 92 217 0.0 0.0 0.00 0.00 0.00 48 1010.7
20240622233005 92 217 0.0 0.0 0.00 0.00 0.00 47 1010.6
20240622231601 93 219 0.0 0.0 0.00 0.00 0.00 46 1010.6
20240622230059 94 216 0.0 5.0 0.00 0.00 0.00 44 1010.5
20240622224600 94 220 1.0 4.0 0.00 0.00 0.00 44 1010.6
20240622223059 94 219 1.0 5.0 0.00 0.00 0.00 41 1010.6
20240622221606 95 224 0.0 4.0 0.00 0.00 0.00 44 1010.7
20240622220056 95 223 2.0 5.0 0.00 0.00 0.00 42 1010.8
20240622214554 95 262 0.0 1.0 0.00 0.00 0.00 43 1010.9
20240622213053 95 289 0.0 3.0 0.00 0.00 0.00 44 1011.0
20240622211551 94 219 0.0 1.0 0.00 0.00 0.00 46 1011.3
20240622210049 93 288 0.0 0.0 0.00 0.00 0.00 48 1011.4
20240622204547 93 297 0.0 0.0 0.00 0.00 0.00 48 1011.7
20240622203045 94 298 0.0 0.0 0.00 0.00 0.00 48 1011.9
20240622201544 93 298 0.0 0.0 0.00 0.00 0.00 49 1012.2
20240622200050 93 298 0.0 0.0 0.00 0.00 0.00 46 1012.2
20240622194541 94 302 0.0 2.0 0.00 0.00 0.00 45 1012.4
20240622193039 94 304 0.0 3.0 0.00 0.00 0.00 43 1012.6
20240622191558 96 284 1.0 8.0 0.00 0.00 0.00 41 1012.7
20240622190045 96 302 0.0 1.0 0.00 0.00 0.00 43 1012.8
20240622184534 95 252 0.0 0.0 0.00 0.00 0.00 41 1013.0
20240622183037 94 328 0.0 5.0 0.00 0.00 0.00 43 1013.3
20240622181528 95 214 2.0 6.0 0.00 0.00 0.00 41 1013.4
20240622180030 95 19 1.0 7.0 0.00 0.00 0.00 42 1013.7
20240622174522 94 280 0.0 3.0 0.00 0.00 0.00 43 1014.0
20240622173021 95 272 2.0 6.0 0.00 0.00 0.00 41 1014.1
20240622171519 94 266 0.0 3.0 0.00 0.00 0.00 44 1014.3
20240622170015 93 228 1.0 5.0 0.00 0.00 0.00 42 1014.6
20240622164515 93 261 0.0 1.0 0.00 0.00 0.00 45 1014.8
20240622163015 93 287 0.0 0.0 0.00 0.00 0.00 43 1015.0
20240622161506 92 292 0.0 0.0 0.00 0.00 0.00 46 1015.2
20240622160003 91 333 0.0 1.0 0.00 0.00 0.00 45 1015.3
20240622154605 91 311 0.0 4.0 0.00 0.00 0.00 48 1015.5
20240622153103 91 27 0.0 2.0 0.00 0.00 0.00 48 1015.5
20240622151555 90 293 0.0 0.0 0.00 0.00 0.00 50 1015.5